Homer, AK

10:16 AM AKST on December 05, 2016 (GMT -0900)
Homer

Weather History for PAHO - October, 2012

Change the Weather History Date:

Tuesday, October 2, 2012

  Actual Average Record
Temperature  
Mean Temperature 48 °F -  
Max Temperature 50 °F 49 °F 60 °F (2003)
Min Temperature 46 °F 35 °F 24 °F (1953)
Degree Days  
Heating Degree Days 17    
Moisture  
Dew Point 37 °F    
Average Humidity 66    
Maximum Humidity 80    
Minimum Humidity 57    
Precipitation  
Precipitation 0.03 in - - ()
Sea Level Pressure  
Sea Level Pressure 30.25 in    
Wind  
Wind Speed 6 mph (ESE)    
Max Wind Speed 14 mph    
Max Gust Speed 21 mph    
Visibility 10 miles    
Events Rain    
Averages and records for this station are not official NWS values.
T = Trace of Precipitation, MM = Missing Value Source: NWS Daily Summary

Daily Weather History Graph

Daily Weather History Graph

Search for Another Location

Airport or City:

Trip Planner

Search our weather history database for the weather conditions in past years. The results will help you decide how hot, cold, wet, or windy it might be!

Date:

Astronomy

Oct. 02, 2012 Rise Set
Actual Time 8:15 AM AKDT 7:33 PM AKDT
Civil Twilight 7:34 AM AKDT 8:14 PM AKDT
Nautical Twilight 6:46 AM AKDT 9:02 PM AKDT
Astronomical Twilight 5:55 AM AKDT 9:52 PM AKDT
Moon 7:56 PM AKDT (10/2) 11:45 AM AKDT (10/2)
Length of Visible Light 12h 40m
Length of Day
11h 18m
Waning Gibbous, 93% of the Moon is Illuminated
Oct 2
Waning Gibbous
Oct 7
Last Quarter
Oct 15
New
Oct 21
First Quarter
Oct 29
Full

Hourly Weather History & Observations

Time (AKDT) Temp. Windchill Dew Point Humidity Pressure Visibility Wind Dir Wind Speed Gust Speed Precip Events Conditions
12:53 AM 46.9 °F - 37.0 °F 68% 30.34 in 10.0 mi East 6.9 mph - N/A   Overcast
1:53 AM 46.0 °F 43.1 °F 37.9 °F 73% 30.33 in 10.0 mi NE 5.8 mph - N/A   Overcast
2:53 AM 50.0 °F - 39.0 °F 66% 30.33 in 10.0 mi ESE 6.9 mph - N/A   Overcast
3:53 AM 48.9 °F - 39.9 °F 71% 30.32 in 10.0 mi Calm Calm - 0.00 in   Overcast
4:53 AM 48.0 °F - 42.1 °F 80% 30.33 in 7.0 mi Calm Calm - 0.02 in Rain Light Rain
5:53 AM 48.9 °F - 37.0 °F 64% 30.32 in 10.0 mi South 10.4 mph 17.3 mph 0.01 in   Overcast
6:53 AM 48.9 °F - 37.0 °F 64% 30.31 in 10.0 mi South 5.8 mph - N/A   Mostly Cloudy
7:53 AM 48.0 °F - 35.1 °F 61% 30.29 in 10.0 mi ESE 4.6 mph - N/A   Partly Cloudy
8:53 AM 48.0 °F - 37.0 °F 66% 30.29 in 10.0 mi SE 4.6 mph - N/A   Overcast
9:53 AM 48.9 °F - 36.0 °F 61% 30.28 in 10.0 mi Variable 6.9 mph - N/A   Mostly Cloudy
10:53 AM 48.0 °F - 35.1 °F 61% 30.29 in 10.0 mi SE 9.2 mph 16.1 mph N/A   Scattered Clouds
11:53 AM 48.9 °F - 35.1 °F 59% 30.26 in 10.0 mi ESE 13.8 mph 20.7 mph N/A   Scattered Clouds
12:53 PM 50.0 °F - 35.1 °F 57% 30.25 in 10.0 mi SE 9.2 mph 17.3 mph N/A   Scattered Clouds
1:53 PM 48.9 °F - 36.0 °F 61% 30.24 in 10.0 mi ESE 6.9 mph - N/A   Overcast
2:53 PM 48.9 °F - 37.0 °F 64% 30.22 in 10.0 mi ESE 11.5 mph 19.6 mph 0.00 in   Overcast
3:53 PM 48.0 °F - 37.0 °F 66% 30.21 in 10.0 mi SE 9.2 mph - 0.00 in   Overcast
4:53 PM 48.0 °F - 37.0 °F 66% 30.19 in 10.0 mi East 4.6 mph - N/A   Overcast
5:53 PM 48.0 °F - 37.0 °F 66% 30.18 in 10.0 mi East 4.6 mph - N/A   Overcast
6:53 PM 48.0 °F - 37.9 °F 68% 30.18 in 10.0 mi Calm Calm - 0.00 in Rain Light Rain
7:53 PM 46.9 °F - 37.0 °F 68% 30.17 in 10.0 mi Calm Calm - 0.00 in   Overcast
8:53 PM 46.9 °F - 36.0 °F 66% 30.17 in 10.0 mi Calm Calm - N/A   Overcast
9:53 PM 46.9 °F - 37.0 °F 68% 30.18 in 10.0 mi Calm Calm - N/A   Overcast
10:53 PM 46.9 °F - 36.0 °F 66% 30.19 in 10.0 mi WNW 3.5 mph - N/A   Overcast
11:53 PM 46.0 °F - 36.0 °F 68% 30.19 in 10.0 mi Calm Calm - N/A   Overcast